Temperature
6 6 6 5 5 5 5 5 5 5 5 5 5 5 5 5 5 5 4 4 4 4 4 4 4 4 4 4 4 4 4 4 3 3 3 3 3 4 4 4 3 3 3
6 6 5 5 5 5 5 5 5 5 5 5 5 4 4 4 4 4 4 4 4 4 4 4 4 4 4 3 3 3 3 3 3 3 3 3 3 3 3 3 3 3 3
5 5 5 5 5 5 5 5 5 5 4 4 4 4 4 4 4 4 4 4 4 4 4 4 4 3 3 3 3 3 3 3 3 2 2 2 2 2 2 2 2 2 2
5 5 5 5 5 5 5 4 4 4 4 4 4 4 4 4 4 4 4 4 4 3 3 3 3 3 3 3 3 3 2 2 2 2 2 2 1 1 1 1 2 2 2
5 5 5 4 4 4 4 4 4 4 4 4 3 3 3 3 3 3 3 3 3 3 3 3 3 3 3 2 2 2 2 2 2 1 1 1 1 1 1 1 1 1 1
4 4 4 4 4 4 4 4 4 4 3 3 3 3 3 3 3 3 3 3 3 3 2 2 2 2 2 2 2 1 1 1 1 1 1 1 1 1 1 0 0 0 0
4 4 4 4 4 4 4 4 3 3 3 3 3 2 2 2 2 2 2 2 2 2 2 2 2 2 1 1 1 1 1 1 0 0 0 0 0 0 0 -0 -0 -0 -0
4 4 3 3 3 3 3 3 3 3 3 2 2 2 2 2 2 2 2 2 2 2 1 1 1 1 1 1 0 0 0 0 -0 -0 -0 -0 -0 -0 -0 -0 -1 -1 -1
3 3 3 3 3 3 3 3 3 3 2 2 2 2 1 1 1 1 1 1 1 1 1 1 1 1 0 -0 -0 -0 -0 -0 -1 -1 -1 -1 -1 -1 -1 -1 -1 -1 -1
3 3 3 3 3 3 3 2 2 2 2 1 1 1 1 1 1 1 1 1 1 1 0 0 0 -0 -0 -1 -1 -1 -1 -1 -1 -1 -1 -1 -1 -1 -2 -2 -2 -2 -2
3 3 3 3 2 2 2 2 2 1 1 1 1 1 1 1 0 0 0 0 0 -0 -0 -0 -0 -1 -1 -1 -1 -1 -1 -1 -1 -1 -2 -2 -2 -2 -2 -2 -2 -2 -2
2 2 2 2 2 2 2 1 1 1 1 0 0 0 0 0 0 0 -0 -0 -1 -1 -1 -1 -1 -1 -1 -1 -1 -2 -2 -2 -2 -2 -2 -2 -2 -2 -2 -2 -3 -3 -3
2 2 2 2 1 1 1 1 1 0 0 -0 -0 -0 -0 -0 -0 -0 -1 -1 -1 -1 -1 -1 -2 -2 -2 -2 -2 -2 -2 -2 -2 -3 -3 -3 -3 -3 -3 -3 -3 -3 -3
1 1 1 1 1 1 1 0 0 -0 -0 -0 -1 -1 -1 -1 -1 -1 -1 -1 -1 -1 -2 -2 -2 -2 -2 -2 -3 -3 -3 -3 -3 -3 -3 -3 -3 -3 -3 -4 -4 -4 -4
1 1 1 1 0 0 0 -0 -1 -1 -1 -1 -1 -1 -1 -1 -1 -1 -1 -2 -2 -2 -2 -2 -3 -3 -3 -3 -3 -3 -3 -3 -3 -4 -4 -4 -4 -4 -4 -4 -4 -4 -4
0 0 -0 -0 -0 -0 -1 -1 -1 -1 -1 -1 -1 -1 -1 -1 -2 -2 -2 -2 -2 -3 -3 -3 -3 -3 -3 -3 -4 -4 -4 -4 -4 -4 -4 -4 -4 -5 -5 -5 -5 -5 -5
-0 -0 -1 -1 -1 -1 -2 -2 -2 -2 -2 -2 -2 -2 -2 -2 -2 -2 -2 -2 -3 -3 -3 -3 -4 -4 -4 -4 -4 -4 -4 -4 -4 -5 -5 -5 -5 -5 -5 -5 -5 -5 -5
-1 -1 -1 -2 -2 -2 -2 -2 -2 -2 -2 -2 -2 -2 -2 -2 -3 -3 -3 -3 -3 -3 -4 -4 -4 -4 -4 -4 -5 -5 -5 -5 -5 -5 -5 -5 -5 -5 -5 -6 -6 -6 -6
-2 -2 -2 -2 -3 -3 -3 -3 -3 -3 -3 -3 -3 -3 -3 -3 -3 -3 -4 -4 -4 -4 -4 -5 -5 -5 -5 -5 -5 -5 -5 -5 -5 -6 -6 -6 -6 -6 -6 -6 -6 -6 -6
-3 -3 -3 -3 -3 -3 -4 -3 -4 -4 -4 -4 -4 -3 -4 -4 -4 -4 -4 -4 -5 -5 -5 -5 -5 -5 -5 -5 -5 -5 -6 -6 -6 -6 -6 -6 -6 -6 -6 -6 -6 -6 -6
-3 -3 -4 -4 -4 -4 -4 -4 -4 -4 -4 -4 -4 -4 -4 -4 -4 -5 -5 -5 -5 -5 -5 -5 -5 -5 -5 -6 -6 -6 -6 -6 -6 -6 -6 -6 -7 -7 -7 -7 -7 -7 -7
-4 -4 -4 -4 -4 -5 -5 -5 -5 -5 -5 -5 -5 -5 -5 -5 -5 -5 -5 -5 -5 -6 -6 -6 -6 -6 -6 -6 -6 -6 -6 -7 -7 -7 -7 -7 -7 -7 -7 -7 -7 -7 -7
-5 -5 -5 -5 -5 -5 -5 -5 -5 -5 -5 -5 -5 -6 -6 -6 -6 -6 -6 -6 -6 -6 -6 -6 -6 -6 -6 -6 -6 -7 -7 -7 -7 -7 -7 -7 -7 -7 -8 -8 -8 -8 -8
-5 -5 -5 -6 -6 -6 -6 -6 -6 -6 -6 -6 -6 -6 -6 -6 -6 -6 -6 -6 -6 -6 -6 -7 -7 -7 -7 -7 -7 -7 -7 -7 -7 -8 -8 -8 -8 -8 -8 -8 -8 -8 -8
-6 -6 -6 -6 -6 -6 -6 -6 -6 -6 -6 -6 -7 -7 -7 -7 -7 -7 -7 -7 -7 -7 -7 -7 -7 -7 -7 -7 -7 -7 -7 -7 -8 -8 -8 -8 -8 -8 -8 -8 -8 -8 -8
-6 -6 -6 -6 -7 -7 -7 -7 -7 -7 -7 -7 -7 -7 -7 -7 -7 -7 -7 -7 -7 -7 -7 -7 -7 -7 -7 -7 -7 -7 -8 -8 -8 -8 -8 -8 -8 -8 -8 -8 -8 -8 -9
Wind_Speed
1 1 2 2 3 3 3 3 3 3 3 3 3 3 3 3 4 4 4 4 4 3 3 3 3 2 1 1 1 2 2 2 4 3 2 2 2 3 4 7 8 8 9
2 2 2 2 3 3 3 3 3 3 3 3 3 3 3 3 3 4 4 4 4 4 4 3 3 3 3 2 2 2 2 2 3 4 3 2 3 3 3 4 6 7 8
2 2 2 2 3 3 4 3 3 3 3 3 3 3 3 3 4 4 4 4 4 4 4 4 4 3 3 2 2 2 2 2 2 3 4 3 3 3 3 4 5 5 7
2 2 2 2 2 3 3 4 4 3 3 3 3 3 3 3 3 3 4 4 3 3 4 4 5 5 5 4 3 3 3 2 2 2 3 3 3 3 2 3 4 3 4
2 2 2 1 1 2 3 3 3 3 3 3 3 3 2 3 3 3 3 3 3 3 3 3 3 4 4 4 4 4 3 3 3 3 4 4 4 3 4 3 5 4 5
2 2 2 2 2 2 3 2 3 3 3 3 3 3 3 2 3 4 3 3 3 3 3 3 3 4 5 5 6 5 5 4 4 4 4 5 5 4 3 4 4 4 5
2 2 2 2 2 2 3 3 3 3 3 3 3 3 3 3 4 4 4 3 3 4 4 3 3 3 4 4 5 5 6 8 8 6 6 6 6 5 5 5 5 5 6
2 2 2 2 2 2 3 3 3 2 2 2 3 3 2 3 4 4 3 3 3 4 4 4 4 4 4 4 4 4 4 5 7 6 6 6 6 5 6 6 6 5 5
2 2 2 2 2 2 3 3 2 2 2 2 2 2 2 2 3 4 3 2 3 3 4 4 4 4 5 5 4 4 5 5 6 8 8 8 8 8 6 3 3 3 5
3 2 2 2 2 3 3 3 2 2 2 2 2 2 3 2 3 4 3 2 2 3 3 3 4 4 5 5 4 4 5 5 4 4 5 6 6 6 7 5 4 4 4
2 2 2 2 2 2 2 2 2 2 2 2 2 2 2 3 3 4 4 2 2 3 3 2 3 5 5 6 5 5 6 5 4 4 4 3 3 2 3 4 4 4 4
2 2 2 2 1 1 2 2 2 3 2 2 2 2 2 2 3 3 4 3 3 2 3 3 3 5 5 6 5 5 6 4 2 2 3 3 3 3 3 3 4 4 5
3 3 2 2 1 2 2 2 2 2 2 2 2 2 2 2 2 3 4 4 4 3 3 3 4 4 4 4 4 5 3 2 2 2 3 3 3 2 2 2 2 3 4
3 2 2 2 2 1 1 1 2 2 2 2 2 2 2 2 2 2 2 2 2 2 2 2 3 3 3 3 3 2 2 2 2 2 2 2 2 2 2 2 2 2 3
3 2 2 2 2 2 1 1 1 1 2 2 2 2 2 2 2 2 2 2 2 2 2 1 1 1 1 1 1 1 1 1 1 1 2 2 2 2 2 2 2 2 2
3 2 2 2 1 1 1 2 3 1 1 1 1 1 1 2 2 2 3 3 3 2 1 1 1 1 2 2 2 2 1 1 2 2 2 2 2 3 3 2 2 2 3
3 2 2 2 1 1 1 1 1 3 3 2 2 1 1 1 2 2 2 2 2 1 1 1 1 1 2 2 2 2 2 2 2 2 2 2 2 2 2 3 3 3 3
2 2 2 1 1 1 1 1 1 1 1 2 2 2 2 1 2 2 2 1 1 1 0 1 1 1 1 1 2 2 2 2 2 2 2 2 2 2 3 3 3 3 3
2 1 1 1 1 1 1 1 0 0 0 1 1 1 2 2 2 2 2 0 0 1 1 1 1 1 1 1 1 1 2 2 2 2 2 2 2 2 3 3 3 4 3
1 2 1 1 1 1 1 1 0 0 0 1 1 1 1 2 1 1 1 1 0 1 1 1 1 1 1 1 1 1 2 2 2 2 2 2 2 2 3 3 3 3 2
1 1 1 1 0 0 0 1 1 1 1 1 1 2 2 1 1 1 1 1 1 1 1 1 1 1 1 1 1 1 2 2 2 2 2 2 2 3 3 3 3 3 2
1 1 1 1 0 0 0 0 0 0 1 1 1 1 3 1 1 1 1 1 1 1 1 1 1 1 1 1 2 2 2 3 3 2 2 2 3 3 3 3 3 3 3
1 1 1 1 1 0 1 0 0 0 1 1 1 1 1 1 1 1 1 1 1 1 1 1 1 1 1 2 3 2 3 3 3 3 3 3 3 3 3 3 4 3 3
2 1 1 1 1 1 1 1 1 1 1 1 1 1 1 1 1 1 1 1 1 1 1 1 1 2 3 3 4 4 5 5 5 5 5 4 4 3 3 3 3 3 3
2 1 1 1 1 1 1 1 1 1 1 1 1 1 1 1 2 2 2 1 1 1 1 2 2 3 3 4 5 5 6 6 6 5 5 4 3 3 3 3 3 3 3
2 2 1 1 1 1 1 1 1 1 1 1 1 1 1 1 1 2 2 1 1 1 2 2 3 3 4 5 5 6 6 6 6 5 4 3 3 3 3 3 3 3 3
Wind_Direction
197 200 197 195 195 192 183 184 175 169 168 174 174 175 183 185 176 173 180 174 179 190 190 187 193 193 194 199 202 208 224 222 255 280 289 274 246 249 248 253 257 252 253
198 190 195 190 187 191 188 183 172 171 171 173 168 177 189 193 181 176 182 181 185 193 198 191 198 196 193 202 204 218 229 229 238 270 284 285 268 254 245 258 263 262 258
186 181 186 186 192 192 188 175 170 172 172 171 174 184 190 192 187 181 184 188 193 195 197 198 205 198 209 210 211 221 231 243 241 253 276 285 283 272 276 278 270 266 267
176 180 187 194 201 192 180 173 171 172 177 178 183 189 191 191 188 185 189 194 195 199 205 209 210 207 210 210 219 220 226 234 243 249 270 276 275 269 264 272 282 274 275
171 181 195 193 183 170 164 168 167 172 184 178 179 186 192 193 191 184 186 195 202 210 219 222 215 211 220 226 231 221 219 230 238 250 262 270 267 259 254 262 275 285 277
171 180 171 162 155 165 169 168 169 174 179 175 185 191 198 207 193 194 196 202 208 212 223 231 231 219 224 241 250 247 239 234 238 248 262 261 263 258 258 263 269 284 280
178 171 163 164 166 172 172 168 176 184 183 185 191 194 198 192 191 200 213 211 212 219 221 227 240 239 238 225 246 255 253 255 251 249 256 258 258 251 248 253 253 262 267
181 174 171 173 171 171 170 176 185 181 179 185 188 186 194 201 200 211 221 218 220 223 224 226 229 234 235 237 237 243 252 255 251 250 247 253 255 246 240 248 253 265 278
186 187 182 171 166 170 181 185 187 178 177 180 179 181 194 214 215 220 227 213 220 230 236 235 234 232 250 253 245 249 263 265 268 265 267 269 269 262 253 255 263 274 284
202 194 182 173 175 182 186 179 167 163 176 174 175 188 202 218 226 224 224 208 222 234 239 244 251 252 258 257 246 243 255 263 270 280 281 279 271 260 249 231 228 254 278
182 161 163 173 181 173 158 151 148 153 162 174 188 206 207 218 225 216 213 207 218 236 241 248 254 266 269 269 266 250 260 273 263 260 266 271 269 257 245 237 229 238 253
146 150 158 160 162 142 139 140 147 156 168 183 198 216 221 218 219 223 223 238 247 240 246 248 256 275 280 283 279 280 286 292 273 264 265 265 266 265 264 262 256 261 261
145 153 152 141 137 138 146 150 148 150 168 195 200 214 234 227 221 232 239 249 263 264 257 268 280 285 293 287 284 291 294 277 264 258 260 265 264 260 284 300 300 298 300
149 150 147 142 132 112 110 135 146 162 177 193 205 212 227 237 231 221 230 247 274 279 272 274 293 300 303 305 306 293 274 253 255 259 279 285 291 281 278 280 288 302 302
147 147 144 137 134 113 85 90 146 203 200 206 214 211 214 234 245 255 259 248 248 249 267 270 269 274 268 283 287 279 278 284 281 277 277 283 291 293 293 295 285 289 273
145 142 142 140 127 117 98 47 33 26 6 358 313 244 259 257 266 278 286 286 284 270 283 243 249 245 255 270 277 282 284 277 273 271 267 260 268 274 282 290 283 266 269
149 150 148 142 139 139 136 124 47 14 14 357 342 326 290 279 287 294 296 297 290 291 265 246 248 248 260 270 278 285 289 289 284 281 272 264 268 269 272 273 269 270 268
119 135 138 144 145 152 156 160 159 152 2 345 337 328 328 328 322 317 316 343 334 344 266 257 267 267 268 275 282 293 300 305 302 290 285 278 268 269 269 264 261 259 261
97 100 101 102 103 117 122 119 100 121 250 304 340 345 356 358 348 337 350 30 226 276 280 278 279 280 279 281 288 292 297 301 302 296 288 283 275 273 273 270 267 268 266
89 98 86 101 107 118 131 143 146 201 266 280 288 297 341 3 357 343 350 358 308 287 283 283 288 285 281 273 282 288 295 297 296 290 290 289 287 279 276 275 274 273 268
93 100 101 101 134 166 175 189 197 212 249 281 288 291 306 307 280 284 301 318 300 285 291 297 291 281 275 274 271 278 284 289 291 292 293 292 291 288 283 280 278 273 271
89 81 77 100 101 119 127 160 182 211 245 280 292 302 316 328 302 286 286 297 306 305 305 285 276 269 256 254 261 263 270 277 283 283 284 288 287 286 283 274 277 278 266
86 85 59 52 47 72 36 35 331 281 284 287 296 306 308 309 304 304 308 315 324 330 340 297 280 280 266 264 258 247 258 267 272 271 270 272 276 275 274 271 268 272 268
77 77 65 48 35 37 39 24 354 333 330 324 325 320 319 322 324 326 324 320 319 308 289 272 263 268 273 280 281 274 268 270 272 267 257 255 261 267 268 272 270 263 266
57 59 54 46 33 22 16 4 351 343 332 327 327 327 334 341 337 332 328 322 314 306 298 289 276 274 277 280 283 283 280 282 280 270 258 247 253 261 268 269 269 271 271
52 51 44 34 28 12 358 342 334 337 328 327 326 327 330 329 322 319 322 331 332 322 312 302 294 292 291 292 290 290 292 293 291 285 271 249 248 254 259 263 264 269 273
Height
1469 1469 1470 1470 1471 1472 1472 1473 1474 1474 1475 1476 1476 1478 1479 1480 1482 1483 1485 1487 1488 1490 1492 1493 1494 1496 1498 1499 1500 1501 1502 1502 1501 1499 1501 1501 1501 1501 1501 1501 1501 1500 1500
1466 1466 1467 1467 1468 1468 1469 1470 1471 1472 1473 1473 1474 1475 1476 1478 1479 1480 1482 1483 1485 1486 1488 1489 1491 1492 1493 1495 1496 1497 1497 1498 1498 1496 1496 1496 1496 1496 1496 1495 1495 1495 1494
1463 1463 1463 1464 1464 1465 1466 1467 1468 1469 1470 1470 1471 1472 1473 1474 1476 1477 1479 1480 1481 1483 1484 1485 1487 1488 1489 1490 1491 1492 1493 1493 1493 1492 1491 1492 1492 1492 1491 1490 1490 1489 1489
1460 1460 1460 1461 1461 1462 1463 1464 1465 1466 1467 1468 1469 1469 1470 1472 1473 1474 1475 1477 1478 1479 1480 1482 1483 1484 1484 1486 1486 1487 1488 1488 1488 1487 1487 1486 1486 1486 1486 1485 1484 1483 1483
1457 1457 1457 1458 1458 1459 1460 1461 1462 1463 1464 1465 1466 1467 1468 1468 1470 1471 1472 1473 1474 1475 1476 1477 1478 1479 1480 1481 1482 1482 1483 1483 1483 1482 1482 1481 1481 1481 1480 1480 1479 1478 1477
1454 1454 1454 1455 1455 1456 1457 1458 1459 1460 1461 1462 1463 1464 1464 1465 1467 1468 1468 1469 1470 1471 1472 1473 1474 1475 1476 1477 1477 1478 1479 1478 1478 1478 1477 1476 1476 1476 1476 1475 1474 1473 1471
1451 1451 1452 1452 1453 1453 1454 1455 1456 1457 1458 1459 1459 1460 1461 1462 1463 1464 1465 1465 1466 1467 1468 1469 1470 1470 1471 1472 1472 1473 1473 1473 1474 1474 1472 1471 1471 1471 1471 1470 1469 1468 1466
1448 1448 1449 1449 1449 1450 1451 1451 1453 1453 1454 1455 1456 1457 1458 1458 1459 1460 1461 1462 1463 1464 1464 1465 1466 1466 1467 1467 1467 1467 1467 1468 1468 1468 1467 1466 1466 1466 1466 1465 1464 1463 1461
1444 1445 1445 1446 1446 1447 1447 1448 1449 1450 1451 1452 1453 1454 1455 1455 1456 1457 1458 1458 1459 1459 1460 1461 1461 1462 1462 1463 1463 1462 1462 1462 1462 1462 1462 1461 1460 1460 1460 1460 1459 1457 1455
1441 1442 1443 1443 1443 1444 1444 1445 1446 1447 1448 1449 1450 1451 1452 1452 1453 1454 1454 1454 1455 1455 1456 1456 1457 1457 1458 1458 1458 1457 1457 1456 1457 1456 1456 1455 1455 1455 1455 1455 1454 1453 1451
1439 1439 1440 1441 1441 1441 1442 1442 1443 1444 1445 1446 1447 1448 1448 1449 1450 1450 1451 1451 1451 1451 1451 1452 1452 1453 1453 1453 1453 1452 1452 1452 1451 1451 1450 1450 1450 1449 1449 1449 1449 1448 1447
1436 1436 1437 1438 1438 1439 1439 1440 1441 1442 1442 1443 1444 1444 1445 1446 1446 1447 1447 1448 1448 1448 1448 1448 1448 1448 1448 1448 1448 1447 1447 1447 1446 1446 1445 1444 1444 1444 1444 1443 1443 1443 1442
1433 1433 1434 1435 1435 1436 1436 1437 1438 1439 1439 1440 1440 1441 1441 1442 1443 1444 1444 1444 1444 1444 1444 1444 1444 1444 1444 1443 1443 1443 1443 1442 1441 1441 1440 1440 1440 1439 1439 1438 1438 1437 1437
1430 1430 1431 1432 1433 1433 1434 1435 1435 1436 1436 1437 1437 1438 1438 1439 1440 1440 1440 1440 1440 1440 1440 1440 1440 1440 1440 1439 1439 1438 1438 1438 1437 1437 1436 1436 1435 1435 1434 1433 1432 1432 1431
1427 1428 1428 1429 1430 1431 1431 1432 1433 1434 1434 1435 1435 1435 1435 1435 1436 1437 1436 1436 1436 1436 1436 1436 1436 1436 1435 1435 1435 1434 1434 1434 1433 1433 1432 1432 1431 1430 1430 1429 1428 1427 1427
1424 1425 1426 1427 1427 1428 1428 1429 1430 1432 1432 1433 1433 1433 1433 1433 1433 1433 1433 1433 1433 1433 1433 1432 1432 1432 1432 1431 1431 1430 1430 1430 1429 1429 1428 1428 1427 1426 1425 1425 1424 1423 1422
1421 1422 1423 1424 1425 1425 1426 1426 1427 1428 1429 1430 1430 1430 1430 1430 1430 1430 1430 1430 1430 1430 1430 1429 1429 1429 1429 1428 1428 1427 1426 1426 1426 1425 1425 1424 1423 1423 1422 1421 1420 1420 1419
1419 1420 1421 1421 1422 1423 1424 1424 1425 1425 1425 1426 1427 1427 1427 1427 1427 1427 1427 1427 1426 1426 1426 1426 1426 1426 1425 1425 1424 1424 1423 1423 1422 1422 1421 1420 1420 1419 1418 1418 1417 1416 1416
1417 1417 1418 1419 1420 1421 1421 1422 1422 1423 1423 1423 1423 1424 1424 1424 1424 1424 1423 1423 1423 1423 1423 1423 1423 1423 1422 1422 1421 1421 1420 1419 1419 1418 1418 1417 1417 1416 1415 1415 1414 1413 1413
1415 1416 1416 1417 1418 1418 1419 1419 1420 1420 1421 1421 1421 1421 1421 1421 1420 1421 1421 1420 1420 1420 1420 1420 1420 1420 1419 1419 1418 1417 1417 1416 1416 1415 1415 1414 1414 1413 1412 1412 1411 1410 1410
1412 1413 1414 1414 1415 1416 1416 1416 1417 1417 1418 1418 1418 1418 1418 1418 1418 1418 1418 1418 1418 1418 1418 1417 1417 1417 1416 1416 1415 1414 1414 1413 1412 1412 1411 1411 1410 1410 1409 1408 1408 1407 1407
1410 1411 1412 1412 1413 1413 1414 1414 1414 1415 1415 1415 1415 1415 1415 1415 1415 1415 1415 1415 1415 1415 1415 1414 1414 1414 1413 1413 1412 1411 1411 1410 1409 1409 1408 1408 1407 1406 1406 1405 1405 1404 1404
1409 1409 1410 1410 1410 1411 1411 1412 1412 1412 1413 1413 1413 1413 1412 1412 1412 1412 1412 1412 1412 1412 1411 1411 1411 1411 1410 1410 1409 1408 1408 1407 1406 1406 1405 1405 1404 1403 1403 1402 1402 1401 1401
1407 1407 1408 1408 1408 1409 1409 1409 1410 1410 1410 1410 1410 1410 1410 1410 1410 1410 1410 1409 1409 1409 1409 1408 1408 1408 1407 1407 1406 1405 1405 1404 1403 1403 1402 1402 1401 1401 1400 1400 1399 1399 1398
1406 1406 1406 1406 1407 1407 1407 1407 1407 1407 1407 1408 1408 1408 1407 1407 1407 1407 1407 1406 1406 1406 1406 1406 1405 1405 1404 1404 1403 1402 1402 1401 1401 1400 1399 1399 1399 1398 1398 1397 1397 1396 1396
1404 1404 1404 1405 1405 1405 1405 1405 1405 1405 1405 1405 1405 1405 1405 1404 1404 1404 1404 1404 1403 1403 1403 1403 1402 1402 1401 1401 1400 1400 1399 1399 1398 1397 1397 1396 1396 1396 1395 1395 1394 1394 1393